Weather History for Bowling Green, KY

Change the Weather History Date:

Monday, April 1, 2013

  Actual Average Record
Temperature  
Mean Temperature 49 °F 53 °F  
Max Temperature 58 °F 65 °F 87 °F (1940)
Min Temperature 40 °F 41 °F 19 °F (1923)
Degree Days  
Heating Degree Days 16 12  
Month to date heating degree days 16 12  
Since 1 July heating degree days 3588 3730  
Cooling Degree Days 0 0  
Month to date cooling degree days 0 0  
Year to date cooling degree days 0 5  
Moisture  
Dew Point 33 °F    
Average Humidity 64    
Maximum Humidity 93    
Minimum Humidity 35    
Precipitation  
Precipitation 0.00 in 0.13 in 3.22 in (1970)
Month to date precipitation 0.00 0.13  
Year to date precipitation 12.90 12.11  
Snow  
Snow 0.00 in 0.00 in 0.00 in ()
Month to date snowfall 0.0 0.0  
Since 1 July snowfall 3.8 8.9  
Snow Depth 0.00 in    
Sea Level Pressure  
Sea Level Pressure 30.06 in    
Wind  
Wind Speed 7 mph (NW)    
Max Wind Speed 16 mph    
Max Gust Speed 23 mph    
Visibility 9 miles    
Events      
T = Trace of Precipitation, MM = Missing Value Source: NWS Daily Summary

Daily Weather History Graph

Daily Weather History Graph

Search for Another Location

Airport:

Trip Planner

Search our weather history database for the weather conditions in past years. The results will help you decide how hot, cold, wet, or windy it might be!

Date:

Astronomy

Apr. 01, 2013 Rise Set
Actual Time 6:31 AM CDT 7:08 PM CDT
Civil Twilight 6:04 AM CDT 7:34 PM CDT
Nautical Twilight 5:34 AM CDT 8:05 PM CDT
Astronomical Twilight 5:02 AM CDT 8:37 PM CDT
Moon 12:09 AM CDT (4/1) 10:23 AM CDT (4/1)
Length of Visible Light 13h 29m
Length of Day
12h 37m
Waning Gibbous, 67% of the Moon is Illuminated
Apr 1
Waning Gibbous
Apr 2
Last Quarter
Apr 10
New
Apr 18
First Quarter
Apr 25
Full

Hourly Weather History & Observations

Time (CDT) Temp. Windchill Dew Point Humidity Pressure Visibility Wind Dir Wind Speed Gust Speed Precip Events Conditions
12:53 AM 48.0 °F - 45.0 °F 89% 29.91 in 8.0 mi Calm Calm - N/A   Clear
1:53 AM 46.9 °F - 44.1 °F 90% 29.92 in 7.0 mi SSW 4.6 mph - N/A   Clear
2:53 AM 48.0 °F - 45.0 °F 89% 29.92 in 6.0 mi SW 3.5 mph - N/A   Overcast
3:53 AM 46.9 °F - 45.0 °F 93% 29.92 in 7.0 mi SW 3.5 mph - N/A   Partly Cloudy
4:53 AM 46.0 °F 44.8 °F 44.1 °F 93% 29.94 in 5.0 mi West 3.5 mph - N/A   Clear
5:53 AM 48.9 °F - 43.0 °F 80% 29.96 in 10.0 mi NNW 3.5 mph - N/A   Clear
6:53 AM 48.0 °F - 39.0 °F 71% 30.01 in 10.0 mi NNW 3.5 mph - N/A   Mostly Cloudy
7:53 AM 48.0 °F - 34.0 °F 58% 30.04 in 10.0 mi NNW 9.2 mph - N/A   Scattered Clouds
8:53 AM 48.0 °F - 33.1 °F 56% 30.07 in 10.0 mi NNW 6.9 mph - N/A   Mostly Cloudy
9:53 AM 50.0 °F - 32.0 °F 50% 30.09 in 10.0 mi North 8.1 mph - N/A   Partly Cloudy
10:53 AM 50.0 °F - 32.0 °F 50% 30.11 in 10.0 mi NNW 8.1 mph - N/A   Overcast
11:53 AM 53.1 °F - 34.0 °F 48% 30.10 in 10.0 mi North 8.1 mph - N/A   Clear
12:53 PM 57.0 °F - 36.0 °F 45% 30.10 in 10.0 mi NNW 11.5 mph - N/A   Partly Cloudy
1:53 PM 57.0 °F - 35.1 °F 44% 30.08 in 10.0 mi WNW 15.0 mph 20.7 mph N/A   Clear
2:53 PM 57.0 °F - 34.0 °F 42% 30.09 in 10.0 mi WNW 11.5 mph 20.7 mph N/A   Clear
3:53 PM 55.9 °F - 32.0 °F 40% 30.09 in 10.0 mi WNW 11.5 mph 21.9 mph N/A   Clear
4:53 PM 54.0 °F - 30.9 °F 41% 30.10 in 10.0 mi NNW 11.5 mph - N/A   Scattered Clouds
5:53 PM 53.1 °F - 27.0 °F 37% 30.11 in 10.0 mi NNW 9.2 mph - N/A   Partly Cloudy
6:53 PM 50.0 °F - 26.1 °F 39% 30.13 in 10.0 mi WNW 9.2 mph - N/A   Partly Cloudy
7:53 PM 48.0 °F - 25.0 °F 41% 30.13 in 10.0 mi NNW 5.8 mph - N/A   Clear
8:53 PM 46.0 °F 43.1 °F 23.0 °F 40% 30.15 in 10.0 mi NNW 5.8 mph - N/A   Clear
9:53 PM 44.1 °F 42.5 °F 21.9 °F 42% 30.17 in 10.0 mi NNW 3.5 mph - N/A   Clear
10:53 PM 43.0 °F 39.5 °F 21.0 °F 42% 30.17 in 10.0 mi North 5.8 mph - N/A   Clear
11:53 PM 41.0 °F - 21.0 °F 45% 30.18 in 10.0 mi Calm Calm - N/A   Clear